Regional Weather Roundup
Issued by NWS

Home | Current Version | Previous Version | Graphics & Text | Print | Product List | Glossary Off
Versions: 1 2 3 4 5 6 7 8 9 10 11 12 13 14 15 16 17 18 19 20 21 22 23 24 25 26 27 28 29 30 31 32 33 34 35 36 37 38 39 40 41 42 43 44 45 46 47 48 49 50

000
ASUS43 KTOP 281108
RWRKS

WEATHER ROUNDUP FOR KANSAS
NATIONAL WEATHER SERVICE GOODLAND KS
600 AM CDT SUN MAY 28 2017

NOTE:  "FAIR" INDICATES FEW OR NO CLOUDS BELOW 12,000 FEET WITH NO
SIGNIFICANT WEATHER AND/OR OBSTRUCTIONS TO VISIBILITY.

KSZ001>006-013>018-027>032-041>047-281200-
NORTHWEST KANSAS

CITY           SKY/WX    TMP DP  RH WIND       PRES   REMARKS
GOODLAND       CLEAR     47  43  86 W14       30.12S
HAYS           PTCLDY    53  50  89 NW7       30.02S
HILL CITY      CLEAR     53  49  86 NW12      30.04S
RUSSELL        CLEAR     53  50  89 NW10      29.99R
$$

KSZ061>065-074>080-084>089-281200-
SOUTHWEST KANSAS

CITY           SKY/WX    TMP DP  RH WIND       PRES   REMARKS
DODGE CITY     CLEAR     49  47  93 NW8       30.07R
ELKHART          N/A     50  38  63 MISG        N/A
GARDEN CITY    CLEAR     47  44  90 NW9       30.10R
GREAT BEND     CLEAR     51  50  96 NW7       30.02
LIBERAL        PTCLDY    53  50  89 NW12      30.12R
PRATT          CLEAR     53  50  91 N8        30.02R
$$

KSZ066>073-081>083-090>101-281200-
SOUTHEAST KANSAS

CITY           SKY/WX    TMP DP  RH WIND       PRES   REMARKS
CHANUTE        CLEAR     62  58  86 N7        29.90R
COFFEYVILLE    PTCLDY    64  64 100 N12       29.90R
HUTCHINSON     CLEAR     58  53  84 N10       29.97R
MEDICINE LODGE   N/A     58  53  84 N7        30.00R
NEWTON         PTCLDY    58  54  86 N10       29.96R
PARSONS        CLOUDY    62  59  90 N7        29.90R
WICHITA INTL   PTCLDY    61  55  81 N13       29.95R
WICHITA JABRA  CLEAR     59  55  87 N10       29.94R
WICHITA MCCONL MOCLDY    60  55  83 N12       29.95R
WINFIELD       CLEAR     61  58  90 NE3       29.94R
$$

KSZ007>012-019>026-033>040-048>060-102>105-281200-
NORTHEAST KANSAS

CITY           SKY/WX    TMP DP  RH WIND       PRES   REMARKS
CONCORDIA      CLEAR     53  52  96 W10       29.96S
EMPORIA        CLEAR     59  58  96 NW5       29.92R
LAWRENCE       CLEAR     57  56  96 NW5       29.89R
MANHATTAN      CLEAR     57  54  89 CALM      29.93S
MARYSVILLE     CLEAR     52  50  93 CALM      29.94R
OLATHE IND     CLEAR     59  57  93 NW12      29.89R
OLATHE EXE     CLEAR     58  58 100 N5        29.88R
SALINA         CLEAR     57  53  86 NW3       29.96F
TOPEKA BILLARD CLEAR     59  58  96 W6        29.90R
TOPEKA FORBES  CLEAR     60  57  89 NW9       29.90R
$$




USA.gov is the U.S. government's official web portal to all federal, state and local government web resources and services.